Location: Aero Estates Airport (historical)
(33.2985°N, 96.8642°W)
Time: 07:52:07
(UTC+00:00)

Hubble Space Telescope - Pass Details

Date: 22 October 2024
Orbit: 501 x 505 km, 28.5° (Epoch: 05 November)

Event Time Altitude Azimuth Distance (km) Brightness Sun altitude
Rises 00:17:02 0° 255° (WSW) 2,584 6.7 -7.1°
Reaches altitude 10° 00:19:20 10° 248° (WSW) 1,702 4.9 -7.6°
Maximum altitude 00:23:02 40° 178° (S) 745 1.5 -8.4°
Drops below altitude 10° 00:26:44 10° 108° (ESE) 1,705 2.8 -9.2°
Enters shadow 00:26:46 10° 107° (ESE) 1,719 2.8 -9.2°
